Regional Weather Roundup
Issued by NWS

Home | Current Version | Previous Version | Graphics & Text | Print | Product List | Glossary Off
Versions: 1 2 3 4 5 6 7 8 9 10 11 12 13 14 15 16 17 18 19 20 21 22 23 24 25 26 27 28 29 30 31 32 33 34 35 36 37 38 39 40 41 42 43 44 45 46 47 48 49 50

000
ASUS45 KBOU 241207
RWRCO

WEATHER ROUNDUP FOR COLORADO
NATIONAL WEATHER SERVICE DENVER/BOULDER CO
600 AM MDT SUN MAY 24 2015

NOTE: "FAIR" INDICATES FEW OR NO CLOUDS BELOW 12000 FEET WITH NO
SIGNIFICANT WEATHER AND/OR OBSTRUCTIONS TO VISIBILITY.

COZ001>005-013-030-031-241300-
...NORTHWEST COLORADO...

CITY           SKY/WX    TMP DP  RH WIND       PRES   REMARKS
CRAIG          CLOUDY    41  37  86 CALM      29.96S
HAYDEN         CLOUDY    39  34  81 E7        29.97S
MEEKER         CLOUDY    39  36  89 CALM      29.98S
MOUNT WERNER   NOT AVBL
STEAMBOAT SPGS CLOUDY    36  35  97 CALM      29.98S
WALDEN         CLOUDY    34  32  93 CALM      29.97S
$$

COZ006>008-011-241300-
...WEST CENTRAL VALLEYS...

CITY           SKY/WX    TMP DP  RH WIND       PRES   REMARKS
GRAND JUNCTION MOCLDY    44  42  93 E5        29.96S
MONTROSE       CLOUDY    39  38  96 SE6       30.01S
EAGLE          CLOUDY    37  36  93 CALM      30.02S
RIFLE          CLOUDY    44  39  82 CALM      29.97S
DELTA          CLOUDY    46  44  93 MISG      29.99S
NUCLA          CLOUDY    39  36  87 E6        30.03S
$$

COZ017>023-064>068-241300-
...SOUTHWEST COLORADO...

CITY           SKY/WX    TMP DP  RH WIND       PRES   REMARKS
DURANGO        CLOUDY    41  39  93 SW5       30.01R
CORTEZ         LGT RAIN  42  41  96 E5        30.00S
PAGOSA SPRINGS DRIZZLE   39  38  97 SE3       30.03R
TELLURIDE      CLOUDY    31  29  93 CALM      30.06R
WOLF CREEK PAS NOT AVBL
$$

COZ009-010-012-014-032>034-037-058>063-241300-
...CENTRAL COLORADO...

CITY           SKY/WX    TMP DP  RH WIND       PRES   REMARKS
ASPEN          CLOUDY    35  33  92 S3        30.00R
BUENA VISTA    MOCLDY    33  29  83 NE3       30.00R
COPPER MTN     FLURRIES  28  21  74 S8        30.07S WCI  20
BERTHOUD PASS  FAIR      19  12  73 W5        30.09S WCI  13
COTTONWOOD PAS CLOUDY    36  28  75 CALM      30.04R
GUNNISON       CLOUDY    37  30  75 CALM      30.04S
KREMMLING      CLOUDY    36  32  87 SE3       30.03R
LEADVILLE      CLOUDY    28  26  92 CALM      30.02F
SALIDA         PTCLDY    35  31  85 CALM      30.07S
SUNLIGHT       CLOUDY    32  30  93 CALM        N/A
WILKERSON PASS CLOUDY    28  27  93 CALM      30.09S FOG
$$

COZ069>075-241300-
...SAN LUIS VALLEY/SANGRE DE CRISTO MOUNTAINS...

CITY           SKY/WX    TMP DP  RH WIND       PRES   REMARKS
ALAMOSA        CLOUDY    43  30  60 S12       29.98F
LA VETA PASS   MOCLDY   N/A N/A N/A MISG      30.05F
SAGUACHE       MOCLDY    37  30  75 NW6       30.00S
$$

COZ035-036-038>040-241300-
...NORTHERN COLORADO FRONT RANGE...

CITY           SKY/WX    TMP DP  RH WIND       PRES   REMARKS
DENVER INTL AP PTCLDY    42  38  85 SW8       29.92R
DMNS CITY PARK   N/A     41  39  92 S5        29.92S
AURORA         PTCLDY    39  39  99 S8        29.93S
FRONT RANGE AP NOT AVBL
ERIE MUNI ARPT PTCLDY    38  37  96 CALM      29.91R
BOULDER MUN AP PTCLDY    41  37  87 CALM      29.91R
CENTENNIAL     PTCLDY    38  36  92 S6        29.93S
BROOMFIELD     PTCLDY    41  36  81 CALM      29.92S
FORT COLLINS   MOCLDY    37  36  93 N7        29.92S VSB 1/4
LONGMONT       CLEAR     39  38  94 W3        29.93S
$$

COZ041-046-047-076>085-087-088-241300-
...PIKES PEAK/PALMER DIVIDE AND SOUTHERN FOOTHILLS...

CITY           SKY/WX    TMP DP  RH WIND       PRES   REMARKS
COLO. SPRINGS  MOCLDY    42  39  89 CALM      29.96S
A. F. ACADEMY  PTCLDY    34  34  99 N8        29.95S WCI  27
ELLICOTT       NOT AVBL
FALCON         PTCLDY    37  36  97 W5        29.97S
FORT CARSON    PTCLDY    42  41  98 W5        29.93F
LIMON          PTCLDY    37  37 100 NW3       29.92S
MONUMENT HILL  NOT AVBL
TRINIDAD       CLOUDY    44  40  85 W9        29.94F
$$

COZ042>045-048>051-090-091-241300-
...NORTHEAST COLORADO...

CITY           SKY/WX    TMP DP  RH WIND       PRES   REMARKS
GREELEY ARPT   CLEAR     41  39  93 NE6       29.92R
AKRON          FOG       45  45 100 NW6       29.90S VSB 1/4
BURLINGTON     CLOUDY    50  46  86 SW6       29.90S
WRAY           CLOUDY   N/A N/A N/A CALM      29.89R HAZE
STERLING       CLOUDY    50  50 100 W6        29.90R
HOLYOKE        NOT AVBL
FORT MORGAN    FOG       40  38  95 N5        29.92R VSB 1/4
$$

COZ086-089-092>099-241300-
...SOUTHEAST COLORADO...

CITY           SKY/WX    TMP DP  RH WIND       PRES   REMARKS
PUEBLO         PTCLDY    44  42  93 CALM      29.91F
LA JUNTA       CLOUDY    52  48  86 SW9       29.89S
LAMAR          CLOUDY    56  54  93 S6        29.85F
SPRINGFIELD      N/A     54  54 100 S8        29.88F
$$


USA.gov is the U.S. government's official web portal to all federal, state and local government web resources and services.